Location: American Canyon
(38.1966°N, 122.1514°W)
Time: 12:58:54
(UTC+00:00)

Cosmos 1190 Rocket - Pass Details

Date: 29 October 2020
Orbit: 757 x 779 km, 74.1° (Epoch: 01 December)

Event Time Altitude Azimuth Distance (km) Brightness Sun altitude
Rises 13:46:36 0° 205° (SSW) 3,226 7.1 -9.5°
Reaches altitude 10° 13:49:00 10° 208° (SSW) 2,300 6.3 -9.1°
Maximum altitude 13:54:11 65° 290° (WNW) 842 4.0 -8.1°
Drops below altitude 10° 13:59:22 10° 12° (NNE) 2,301 6.5 -7.1°
Sets 14:01:46 0° 16° (NNE) 3,227 7.3 -6.6°
